QPF
0.00 0.00 0.00 0.00 0.00 0.00 0.00 0.00 0.00 0.00 0.00 0.00 0.00 0.00 0.00 0.00 0.00 0.00 0.00 0.00 0.00 0.00 0.00 0.00 0.00 0.00 0.01 0.01 0.01 0.01 0.01 0.01 0.01 0.01 0.01 0.01 0.00 0.00 0.00 0.00 0.00 0.00 0.00 0.00 0.00 0.00 0.00 0.00 0.00
0.00 0.00 0.00 0.00 0.00 0.00 0.00 0.00 0.00 0.00 0.00 0.00 0.00 0.00 0.00 0.00 0.00 0.00 0.00 0.00 0.00 0.00 0.00 0.00 0.00 0.00 0.01 0.01 0.01 0.01 0.01 0.00 0.00 0.00 0.00 0.00 0.00 0.00 0.00 0.00 0.00 0.00 0.00 0.00 0.00 0.00 0.00 0.00 0.00
0.00 0.00 0.00 0.00 0.00 0.00 0.00 0.00 0.00 0.00 0.00 0.00 0.00 0.00 0.00 0.00 0.00 0.00 0.00 0.00 0.00 0.00 0.00 0.00 0.00 0.00 0.01 0.01 0.01 0.01 0.00 0.00 0.00 0.00 0.00 0.00 0.00 0.00 0.00 0.00 0.00 0.00 0.00 0.00 0.00 0.00 0.00 0.00 0.00
0.00 0.00 0.00 0.00 0.00 0.00 0.00 0.00 0.00 0.00 0.00 0.00 0.00 0.00 0.00 0.00 0.00 0.00 0.00 0.00 0.00 0.00 0.00 0.00 0.00 0.00 0.01 0.00 0.01 0.01 0.00 0.00 0.00 0.00 0.00 0.00 0.00 0.00 0.00 0.00 0.00 0.00 0.00 0.00 0.00 0.00 0.00 0.00 0.00
0.00 0.00 0.00 0.00 0.00 0.00 0.00 0.00 0.00 0.00 0.00 0.00 0.00 0.00 0.00 0.00 0.00 0.00 0.00 0.00 0.00 0.00 0.00 0.00 0.00 0.00 0.01 0.01 0.01 0.01 0.00 0.00 0.00 0.00 0.00 0.00 0.00 0.00 0.00 0.00 0.00 0.00 0.00 0.00 0.00 0.00 0.00 0.00 0.00
0.00 0.00 0.00 0.00 0.00 0.00 0.00 0.00 0.00 0.00 0.00 0.00 0.00 0.00 0.00 0.00 0.00 0.00 0.00 0.00 0.00 0.00 0.00 0.00 0.00 0.01 0.01 0.01 0.01 0.01 0.00 0.00 0.00 0.00 0.00 0.00 0.00 0.00 0.00 0.00 0.00 0.00 0.00 0.00 0.00 0.00 0.00 0.00 0.00
0.00 0.00 0.00 0.00 0.00 0.00 0.00 0.00 0.00 0.00 0.00 0.00 0.00 0.00 0.00 0.00 0.00 0.00 0.00 0.00 0.00 0.00 0.00 0.00 0.00 0.01 0.01 0.01 0.01 0.01 0.01 0.01 0.00 0.00 0.00 0.00 0.00 0.00 0.00 0.00 0.00 0.00 0.00 0.00 0.00 0.00 0.00 0.00 0.00
0.00 0.00 0.00 0.00 0.00 0.00 0.00 0.00 0.00 0.00 0.00 0.00 0.00 0.00 0.00 0.00 0.00 0.00 0.00 0.00 0.00 0.00 0.00 0.00 0.00 0.00 0.00 0.00 0.01 0.01 0.01 0.01 0.01 0.00 0.00 0.00 0.00 0.00 0.00 0.00 0.00 0.00 0.00 0.00 0.00 0.00 0.00 0.00 0.00
0.00 0.00 0.00 0.00 0.00 0.00 0.00 0.00 0.00 0.00 0.00 0.00 0.00 0.00 0.00 0.00 0.00 0.00 0.00 0.00 0.00 0.00 0.00 0.00 0.00 0.00 0.00 0.00 0.00 0.01 0.01 0.01 0.01 0.01 0.00 0.00 0.00 0.00 0.00 0.00 0.00 0.00 0.00 0.00 0.00 0.00 0.00 0.00 0.00
0.00 0.00 0.00 0.00 0.00 0.00 0.00 0.00 0.00 0.00 0.00 0.00 0.00 0.00 0.00 0.00 0.00 0.00 0.00 0.00 0.00 0.00 0.00 0.00 0.00 0.00 0.00 0.00 0.00 0.00 0.00 0.01 0.01 0.00 0.00 0.00 0.00 0.00 0.00 0.00 0.00 0.00 0.01 0.01 0.00 0.00 0.00 0.00 0.00
0.00 0.00 0.00 0.00 0.00 0.00 0.00 0.00 0.00 0.00 0.00 0.00 0.00 0.00 0.00 0.00 0.00 0.00 0.00 0.00 0.00 0.00 0.00 0.00 0.00 0.00 0.00 0.00 0.00 0.00 0.00 0.00 0.00 0.00 0.00 0.00 0.00 0.00 0.00 0.00 0.00 0.00 0.00 0.00 0.00 0.00 0.00 0.00 0.00
0.00 0.00 0.00 0.00 0.00 0.00 0.00 0.00 0.00 0.00 0.00 0.00 0.00 0.00 0.00 0.00 0.00 0.00 0.00 0.00 0.00 0.00 0.00 0.00 0.00 0.00 0.00 0.00 0.00 0.00 0.00 0.00 0.00 0.00 0.00 0.00 0.00 0.00 0.00 0.00 0.00 0.00 0.00 0.00 0.00 0.00 0.00 0.00 0.00
0.00 0.00 0.00 0.00 0.00 0.00 0.00 0.00 0.00 0.00 0.00 0.00 0.00 0.00 0.00 0.00 0.00 0.00 0.00 0.00 0.00 0.00 0.00 0.00 0.00 0.00 0.00 0.00 0.00 0.00 0.00 0.00 0.00 0.00 0.00 0.00 0.00 0.00 0.00 0.00 0.00 0.00 0.00 0.00 0.00 0.00 0.00 0.00 0.00
0.00 0.00 0.00 0.00 0.00 0.00 0.00 0.00 0.00 0.00 0.00 0.00 0.00 0.00 0.00 0.00 0.00 0.00 0.00 0.00 0.00 0.00 0.00 0.00 0.00 0.00 0.00 0.00 0.00 0.00 0.00 0.00 0.00 0.00 0.00 0.00 0.00 0.00 0.00 0.00 0.00 0.00 0.00 0.00 0.00 0.00 0.00 0.00 0.00
0.00 0.00 0.00 0.00 0.00 0.00 0.00 0.00 0.00 0.00 0.00 0.00 0.00 0.00 0.00 0.00 0.00 0.00 0.00 0.00 0.00 0.00 0.00 0.00 0.00 0.00 0.00 0.00 0.00 0.00 0.00 0.00 0.00 0.00 0.00 0.01 0.00 0.00 0.00 0.00 0.00 0.00 0.00 0.00 0.00 0.00 0.00 0.00 0.00
0.00 0.00 0.00 0.00 0.00 0.00 0.00 0.00 0.00 0.00 0.00 0.00 0.00 0.00 0.00 0.00 0.00 0.00 0.00 0.00 0.00 0.00 0.00 0.00 0.00 0.00 0.00 0.00 0.00 0.00 0.00 0.00 0.00 0.00 0.00 0.01 0.01 0.01 0.00 0.00 0.00 0.00 0.00 0.00 0.00 0.00 0.00 0.00 0.00
0.00 0.00 0.00 0.00 0.00 0.00 0.00 0.00 0.00 0.00 0.00 0.00 0.00 0.00 0.00 0.00 0.00 0.00 0.00 0.00 0.00 0.00 0.00 0.00 0.00 0.00 0.00 0.00 0.00 0.00 0.00 0.00 0.00 0.00 0.00 0.00 0.01 0.01 0.01 0.01 0.00 0.00 0.00 0.00 0.00 0.00 0.00 0.00 0.00
0.00 0.00 0.00 0.00 0.00 0.00 0.00 0.00 0.00 0.00 0.00 0.00 0.00 0.00 0.00 0.00 0.00 0.00 0.00 0.00 0.00 0.00 0.00 0.00 0.00 0.00 0.00 0.00 0.00 0.00 0.00 0.00 0.00 0.00 0.00 0.00 0.00 0.00 0.00 0.00 0.00 0.00 0.00 0.00 0.00 0.00 0.00 0.00 0.00
0.00 0.00 0.00 0.00 0.00 0.00 0.00 0.00 0.00 0.00 0.00 0.00 0.00 0.00 0.00 0.00 0.00 0.00 0.00 0.00 0.00 0.00 0.00 0.00 0.00 0.00 0.00 0.00 0.00 0.00 0.00 0.00 0.00 0.00 0.00 0.00 0.00 0.00 0.00 0.00 0.00 0.00 0.00 0.00 0.00 0.01 0.01 0.00 0.00
0.00 0.00 0.00 0.00 0.00 0.00 0.00 0.00 0.00 0.00 0.00 0.00 0.00 0.00 0.00 0.00 0.00 0.00 0.00 0.00 0.00 0.00 0.00 0.00 0.00 0.00 0.00 0.00 0.00 0.00 0.00 0.00 0.00 0.00 0.00 0.00 0.00 0.00 0.00 0.00 0.01 0.01 0.01 0.01 0.01 0.01 0.01 0.00 0.00
0.00 0.00 0.00 0.00 0.00 0.00 0.00 0.00 0.00 0.00 0.00 0.00 0.00 0.00 0.00 0.00 0.00 0.00 0.00 0.00 0.00 0.00 0.00 0.00 0.00 0.00 0.00 0.00 0.00 0.00 0.00 0.00 0.00 0.00 0.00 0.00 0.00 0.00 0.00 0.00 0.00 0.00 0.00 0.00 0.00 0.00 0.00 0.00 0.00
0.00 0.00 0.00 0.00 0.00 0.00 0.00 0.00 0.00 0.00 0.00 0.00 0.00 0.00 0.00 0.00 0.00 0.00 0.00 0.00 0.00 0.00 0.00 0.00 0.00 0.00 0.00 0.00 0.00 0.00 0.00 0.00 0.00 0.00 0.00 0.00 0.00 0.00 0.00 0.00 0.00 0.00 0.00 0.00 0.00 0.00 0.00 0.00 0.00
0.00 0.00 0.00 0.00 0.00 0.00 0.00 0.00 0.00 0.00 0.00 0.00 0.00 0.00 0.00 0.00 0.00 0.00 0.00 0.00 0.00 0.00 0.00 0.00 0.00 0.00 0.00 0.00 0.00 0.00 0.00 0.00 0.00 0.00 0.00 0.00 0.00 0.00 0.00 0.00 0.00 0.00 0.00 0.00 0.00 0.00 0.00 0.00 0.00
0.00 0.00 0.00 0.00 0.00 0.00 0.00 0.00 0.00 0.00 0.00 0.00 0.00 0.00 0.00 0.00 0.00 0.00 0.00 0.00 0.00 0.00 0.00 0.00 0.00 0.00 0.00 0.00 0.00 0.00 0.00 0.00 0.00 0.00 0.00 0.00 0.00 0.00 0.00 0.00 0.00 0.00 0.00 0.00 0.00 0.00 0.00 0.00 0.00
0.00 0.00 0.00 0.00 0.00 0.00 0.00 0.00 0.00 0.00 0.00 0.00 0.00 0.00 0.00 0.00 0.00 0.00 0.00 0.00 0.00 0.00 0.00 0.00 0.00 0.00 0.00 0.00 0.00 0.00 0.00 0.00 0.00 0.00 0.00 0.00 0.00 0.00 0.00 0.00 0.00 0.00 0.00 0.00 0.00 0.00 0.00 0.00 0.00
0.00 0.00 0.00 0.00 0.00 0.00 0.00 0.00 0.00 0.00 0.00 0.00 0.00 0.00 0.00 0.00 0.00 0.00 0.00 0.00 0.00 0.00 0.00 0.00 0.00 0.00 0.00 0.00 0.00 0.00 0.00 0.00 0.00 0.00 0.00 0.00 0.00 0.00 0.00 0.00 0.00 0.00 0.00 0.00 0.00 0.00 0.00 0.00 0.00
0.00 0.00 0.00 0.00 0.00 0.00 0.00 0.00 0.00 0.00 0.00 0.00 0.00 0.00 0.00 0.00 0.00 0.00 0.00 0.00 0.00 0.00 0.00 0.00 0.00 0.00 0.00 0.00 0.00 0.00 0.00 0.00 0.00 0.00 0.00 0.00 0.00 0.00 0.00 0.00 0.00 0.00 0.00 0.00 0.00 0.00 0.00 0.00 0.00
0.00 0.00 0.00 0.01 0.01 0.00 0.00 0.00 0.00 0.00 0.00 0.00 0.00 0.00 0.00 0.00 0.00 0.00 0.00 0.00 0.00 0.00 0.00 0.00 0.00 0.00 0.00 0.00 0.00 0.00 0.00 0.00 0.00 0.00 0.00 0.00 0.00 0.00 0.00 0.00 0.00 0.00 0.00 0.00 0.00 0.00 0.00 0.00 0.00
0.00 0.00 0.00 0.01 0.00 0.00 0.00 0.00 0.00 0.00 0.00 0.00 0.00 0.00 0.00 0.00 0.00 0.00 0.00 0.00 0.00 0.00 0.00 0.00 0.00 0.00 0.00 0.00 0.00 0.00 0.00 0.00 0.00 0.00 0.00 0.00 0.00 0.00 0.00 0.00 0.00 0.00 0.00 0.00 0.00 0.00 0.00 0.00 0.00
0.00 0.00 0.00 0.01 0.00 0.00 0.00 0.00 0.00 0.00 0.00 0.00 0.00 0.00 0.00 0.00 0.00 0.00 0.00 0.00 0.00 0.00 0.00 0.00 0.00 0.00 0.00 0.00 0.00 0.00 0.00 0.00 0.00 0.00 0.00 0.00 0.00 0.00 0.00 0.00 0.00 0.00 0.00 0.00 0.00 0.00 0.00 0.00 0.00
MSLP
1013.85 1014.58 1015.50 1016.46 1017.36 1018.06 1018.52 1018.69 1018.61 1018.35 1018.01 1017.68 1017.43 1017.28 1017.24 1017.27 1017.31 1017.33 1017.28 1017.19 1017.07 1016.97 1016.95 1017.05 1017.28 1017.63 1018.07 1018.55 1019.02 1019.44 1019.79 1020.06 1020.26 1020.43 1020.58 1020.74 1020.91 1021.09 1021.28 1021.46 1021.61 1021.74 1021.83 1021.89 1021.92 1021.92 1021.91 1021.87 1021.83
1014.26 1015.16 1016.16 1017.14 1017.96 1018.51 1018.75 1018.68 1018.35 1017.87 1017.35 1016.90 1016.58 1016.43 1016.41 1016.49 1016.60 1016.69 1016.72 1016.70 1016.66 1016.64 1016.70 1016.87 1017.18 1017.59 1018.09 1018.61 1019.12 1019.56 1019.93 1020.22 1020.46 1020.66 1020.84 1021.04 1021.24 1021.45 1021.65 1021.83 1021.99 1022.11 1022.19 1022.25 1022.28 1022.29 1022.28 1022.26 1022.23
1014.76 1015.75 1016.78 1017.70 1018.38 1018.74 1018.76 1018.46 1017.92 1017.28 1016.65 1016.14 1015.81 1015.68 1015.72 1015.86 1016.05 1016.21 1016.31 1016.37 1016.40 1016.46 1016.59 1016.83 1017.20 1017.66 1018.19 1018.72 1019.23 1019.68 1020.05 1020.35 1020.60 1020.83 1021.05 1021.28 1021.51 1021.73 1021.94 1022.12 1022.26 1022.37 1022.44 1022.49 1022.52 1022.54 1022.55 1022.57 1022.58
1015.30 1016.31 1017.28 1018.08 1018.59 1018.75 1018.56 1018.07 1017.40 1016.66 1015.99 1015.49 1015.21 1015.14 1015.25 1015.46 1015.71 1015.93 1016.10 1016.22 1016.32 1016.45 1016.65 1016.94 1017.35 1017.83 1018.35 1018.87 1019.35 1019.77 1020.12 1020.42 1020.68 1020.92 1021.18 1021.43 1021.70 1021.94 1022.16 1022.33 1022.46 1022.55 1022.61 1022.65 1022.69 1022.73 1022.77 1022.83 1022.89
1015.83 1016.79 1017.64 1018.27 1018.58 1018.54 1018.18 1017.57 1016.83 1016.09 1015.46 1015.04 1014.84 1014.86 1015.04 1015.31 1015.61 1015.87 1016.08 1016.25 1016.40 1016.58 1016.83 1017.17 1017.59 1018.06 1018.56 1019.04 1019.46 1019.83 1020.14 1020.41 1020.67 1020.94 1021.22 1021.52 1021.81 1022.09 1022.31 1022.49 1022.61 1022.69 1022.74 1022.79 1022.84 1022.90 1022.98 1023.08 1023.18
1016.29 1017.14 1017.82 1018.25 1018.37 1018.16 1017.69 1017.02 1016.29 1015.62 1015.10 1014.79 1014.70 1014.82 1015.07 1015.39 1015.71 1015.98 1016.21 1016.40 1016.58 1016.80 1017.08 1017.44 1017.86 1018.32 1018.77 1019.18 1019.54 1019.84 1020.11 1020.35 1020.61 1020.89 1021.21 1021.55 1021.89 1022.19 1022.45 1022.63 1022.76 1022.84 1022.89 1022.94 1023.00 1023.09 1023.20 1023.33 1023.47
1016.64 1017.34 1017.83 1018.06 1017.99 1017.66 1017.13 1016.48 1015.82 1015.27 1014.90 1014.74 1014.77 1014.97 1015.27 1015.61 1015.92 1016.18 1016.39 1016.58 1016.78 1017.02 1017.32 1017.69 1018.10 1018.53 1018.94 1019.29 1019.58 1019.83 1020.05 1020.27 1020.53 1020.84 1021.19 1021.57 1021.95 1022.29 1022.57 1022.78 1022.91 1023.00 1023.05 1023.11 1023.19 1023.30 1023.43 1023.58 1023.72
1016.85 1017.37 1017.67 1017.71 1017.51 1017.10 1016.56 1015.97 1015.44 1015.05 1014.83 1014.81 1014.96 1015.22 1015.54 1015.86 1016.13 1016.36 1016.54 1016.71 1016.90 1017.15 1017.47 1017.85 1018.26 1018.66 1019.03 1019.34 1019.59 1019.80 1019.99 1020.21 1020.47 1020.80 1021.19 1021.61 1022.02 1022.39 1022.70 1022.92 1023.06 1023.15 1023.22 1023.29 1023.37 1023.49 1023.62 1023.77 1023.92
1016.90 1017.26 1017.38 1017.28 1016.98 1016.54 1016.03 1015.54 1015.15 1014.92 1014.85 1014.95 1015.17 1015.46 1015.76 1016.04 1016.26 1016.43 1016.57 1016.71 1016.90 1017.16 1017.49 1017.87 1018.29 1018.69 1019.05 1019.34 1019.58 1019.77 1019.96 1020.18 1020.46 1020.82 1021.22 1021.66 1022.10 1022.48 1022.80 1023.03 1023.18 1023.28 1023.35 1023.42 1023.51 1023.62 1023.75 1023.89 1024.01
1016.83 1017.04 1017.03 1016.82 1016.46 1016.02 1015.58 1015.20 1014.95 1014.85 1014.90 1015.07 1015.33 1015.61 1015.87 1016.09 1016.24 1016.35 1016.44 1016.57 1016.75 1017.01 1017.36 1017.76 1018.19 1018.60 1018.97 1019.27 1019.52 1019.74 1019.95 1020.19 1020.50 1020.86 1021.28 1021.72 1022.15 1022.54 1022.85 1023.07 1023.22 1023.33 1023.40 1023.47 1023.55 1023.66 1023.77 1023.89 1023.98
1016.68 1016.78 1016.66 1016.39 1016.01 1015.61 1015.24 1014.97 1014.82 1014.81 1014.93 1015.13 1015.38 1015.62 1015.83 1015.97 1016.06 1016.12 1016.18 1016.29 1016.47 1016.74 1017.09 1017.51 1017.96 1018.40 1018.80 1019.14 1019.43 1019.69 1019.94 1020.21 1020.54 1020.91 1021.32 1021.75 1022.15 1022.51 1022.80 1023.01 1023.16 1023.26 1023.34 1023.41 1023.49 1023.58 1023.68 1023.77 1023.83
1016.51 1016.52 1016.35 1016.05 1015.69 1015.33 1015.03 1014.84 1014.76 1014.80 1014.93 1015.12 1015.32 1015.50 1015.64 1015.72 1015.76 1015.78 1015.82 1015.92 1016.10 1016.38 1016.74 1017.18 1017.64 1018.11 1018.54 1018.93 1019.28 1019.59 1019.89 1020.21 1020.55 1020.91 1021.30 1021.69 1022.06 1022.38 1022.64 1022.83 1022.97 1023.08 1023.16 1023.24 1023.32 1023.41 1023.49 1023.56 1023.60
1016.38 1016.34 1016.14 1015.85 1015.52 1015.21 1014.97 1014.82 1014.77 1014.80 1014.90 1015.03 1015.17 1015.27 1015.34 1015.38 1015.39 1015.40 1015.44 1015.54 1015.73 1016.00 1016.36 1016.78 1017.26 1017.74 1018.21 1018.65 1019.06 1019.43 1019.79 1020.13 1020.48 1020.84 1021.20 1021.54 1021.86 1022.14 1022.36 1022.54 1022.69 1022.80 1022.90 1023.00 1023.09 1023.18 1023.25 1023.31 1023.33
1016.35 1016.28 1016.08 1015.81 1015.51 1015.25 1015.05 1014.91 1014.84 1014.83 1014.86 1014.90 1014.95 1014.99 1015.01 1015.02 1015.03 1015.05 1015.10 1015.21 1015.39 1015.65 1015.99 1016.39 1016.85 1017.34 1017.83 1018.31 1018.77 1019.20 1019.61 1019.98 1020.34 1020.68 1020.99 1021.29 1021.56 1021.80 1022.01 1022.19 1022.34 1022.49 1022.62 1022.74 1022.86 1022.96 1023.03 1023.08 1023.10
1016.42 1016.34 1016.15 1015.92 1015.67 1015.44 1015.25 1015.09 1014.97 1014.88 1014.81 1014.75 1014.71 1014.69 1014.68 1014.69 1014.72 1014.77 1014.85 1014.97 1015.14 1015.37 1015.66 1016.02 1016.45 1016.92 1017.42 1017.94 1018.45 1018.93 1019.37 1019.77 1020.13 1020.45 1020.73 1020.99 1021.22 1021.43 1021.64 1021.83 1022.02 1022.21 1022.38 1022.54 1022.69 1022.81 1022.90 1022.94 1022.96
1016.56 1016.49 1016.34 1016.14 1015.94 1015.73 1015.53 1015.34 1015.13 1014.94 1014.75 1014.59 1014.46 1014.39 1014.37 1014.41 1014.47 1014.57 1014.69 1014.82 1014.98 1015.17 1015.41 1015.71 1016.09 1016.53 1017.04 1017.57 1018.12 1018.65 1019.13 1019.55 1019.92 1020.22 1020.47 1020.69 1020.90 1021.10 1021.32 1021.54 1021.78 1022.01 1022.24 1022.45 1022.63 1022.77 1022.87 1022.92 1022.94
1016.74 1016.69 1016.58 1016.44 1016.28 1016.09 1015.86 1015.60 1015.30 1014.97 1014.66 1014.39 1014.19 1014.09 1014.08 1014.15 1014.28 1014.44 1014.60 1014.75 1014.90 1015.04 1015.23 1015.47 1015.79 1016.21 1016.71 1017.27 1017.85 1018.42 1018.94 1019.39 1019.76 1020.05 1020.28 1020.48 1020.67 1020.88 1021.11 1021.37 1021.66 1021.95 1022.23 1022.48 1022.69 1022.85 1022.96 1023.02 1023.04
1016.88 1016.88 1016.84 1016.76 1016.64 1016.46 1016.19 1015.84 1015.42 1014.96 1014.51 1014.14 1013.87 1013.74 1013.75 1013.88 1014.08 1014.32 1014.53 1014.71 1014.85 1014.97 1015.10 1015.30 1015.58 1015.98 1016.48 1017.06 1017.68 1018.30 1018.86 1019.33 1019.71 1019.99 1020.21 1020.40 1020.59 1020.80 1021.05 1021.35 1021.68 1022.01 1022.33 1022.62 1022.85 1023.02 1023.14 1023.21 1023.23
1016.94 1017.01 1017.06 1017.05 1016.98 1016.79 1016.47 1016.02 1015.46 1014.86 1014.27 1013.78 1013.45 1013.30 1013.35 1013.54 1013.83 1014.15 1014.43 1014.66 1014.81 1014.92 1015.03 1015.19 1015.45 1015.84 1016.36 1016.98 1017.64 1018.30 1018.90 1019.41 1019.80 1020.09 1020.30 1020.47 1020.66 1020.87 1021.14 1021.46 1021.82 1022.18 1022.52 1022.82 1023.06 1023.24 1023.36 1023.43 1023.47
1016.88 1017.06 1017.21 1017.29 1017.26 1017.06 1016.68 1016.11 1015.41 1014.64 1013.90 1013.30 1012.90 1012.74 1012.82 1013.09 1013.47 1013.89 1014.26 1014.55 1014.74 1014.87 1014.98 1015.14 1015.41 1015.81 1016.35 1017.01 1017.72 1018.43 1019.07 1019.61 1020.01 1020.30 1020.51 1020.68 1020.86 1021.07 1021.34 1021.67 1022.03 1022.40 1022.75 1023.04 1023.28 1023.45 1023.57 1023.65 1023.70
1016.70 1017.00 1017.28 1017.46 1017.47 1017.26 1016.80 1016.11 1015.24 1014.30 1013.41 1012.69 1012.23 1012.06 1012.17 1012.52 1013.00 1013.53 1014.01 1014.38 1014.64 1014.81 1014.95 1015.13 1015.42 1015.85 1016.43 1017.12 1017.88 1018.63 1019.31 1019.87 1020.30 1020.59 1020.80 1020.97 1021.14 1021.34 1021.61 1021.93 1022.28 1022.63 1022.96 1023.23 1023.45 1023.61 1023.72 1023.81 1023.87
1016.42 1016.86 1017.27 1017.55 1017.61 1017.38 1016.84 1016.01 1014.98 1013.87 1012.83 1011.99 1011.46 1011.28 1011.43 1011.86 1012.45 1013.09 1013.69 1014.16 1014.51 1014.74 1014.94 1015.15 1015.47 1015.94 1016.54 1017.27 1018.06 1018.85 1019.55 1020.14 1020.58 1020.88 1021.10 1021.26 1021.42 1021.62 1021.88 1022.18 1022.50 1022.83 1023.12 1023.36 1023.54 1023.68 1023.79 1023.88 1023.98
1016.07 1016.67 1017.22 1017.59 1017.69 1017.44 1016.81 1015.85 1014.66 1013.39 1012.21 1011.27 1010.68 1010.49 1010.68 1011.18 1011.87 1012.63 1013.34 1013.93 1014.37 1014.68 1014.93 1015.19 1015.54 1016.03 1016.66 1017.40 1018.20 1019.00 1019.72 1020.32 1020.77 1021.10 1021.32 1021.49 1021.66 1021.86 1022.10 1022.38 1022.68 1022.97 1023.22 1023.42 1023.57 1023.69 1023.78 1023.89 1024.00
1015.70 1016.44 1017.11 1017.57 1017.70 1017.42 1016.71 1015.64 1014.32 1012.92 1011.62 1010.59 1009.96 1009.76 1009.99 1010.56 1011.34 1012.21 1013.03 1013.71 1014.24 1014.63 1014.94 1015.24 1015.61 1016.10 1016.73 1017.46 1018.26 1019.05 1019.77 1020.38 1020.85 1021.19 1021.43 1021.63 1021.81 1022.02 1022.26 1022.52 1022.80 1023.05 1023.27 1023.43 1023.55 1023.64 1023.72 1023.82 1023.95
1015.31 1016.18 1016.94 1017.47 1017.62 1017.32 1016.56 1015.40 1013.98 1012.49 1011.11 1010.03 1009.37 1009.18 1009.44 1010.07 1010.93 1011.87 1012.78 1013.55 1014.15 1014.60 1014.95 1015.28 1015.66 1016.14 1016.74 1017.45 1018.22 1018.99 1019.70 1020.30 1020.78 1021.15 1021.43 1021.65 1021.87 1022.09 1022.34 1022.61 1022.86 1023.09 1023.27 1023.40 1023.49 1023.55 1023.62 1023.71 1023.85
1014.90 1015.86 1016.69 1017.26 1017.42 1017.11 1016.32 1015.12 1013.66 1012.13 1010.73 1009.63 1008.97 1008.79 1009.08 1009.74 1010.64 1011.64 1012.60 1013.42 1014.08 1014.57 1014.95 1015.29 1015.67 1016.13 1016.70 1017.37 1018.09 1018.83 1019.52 1020.12 1020.62 1021.01 1021.32 1021.59 1021.84 1022.10 1022.37 1022.64 1022.89 1023.10 1023.26 1023.36 1023.42 1023.45 1023.50 1023.57 1023.69
1014.46 1015.45 1016.32 1016.90 1017.06 1016.75 1015.96 1014.77 1013.33 1011.82 1010.45 1009.38 1008.75 1008.59 1008.89 1009.56 1010.47 1011.48 1012.45 1013.30 1013.98 1014.50 1014.90 1015.25 1015.62 1016.06 1016.60 1017.23 1017.92 1018.62 1019.29 1019.89 1020.39 1020.81 1021.16 1021.47 1021.76 1022.05 1022.34 1022.62 1022.87 1023.07 1023.21 1023.29 1023.32 1023.33 1023.35 1023.40 1023.50
1013.96 1014.94 1015.79 1016.36 1016.52 1016.22 1015.46 1014.33 1012.96 1011.53 1010.24 1009.24 1008.65 1008.52 1008.82 1009.47 1010.35 1011.33 1012.28 1013.12 1013.80 1014.33 1014.75 1015.12 1015.50 1015.94 1016.47 1017.07 1017.73 1018.41 1019.06 1019.65 1020.16 1020.61 1020.99 1021.33 1021.65 1021.96 1022.27 1022.55 1022.80 1022.99 1023.11 1023.18 1023.19 1023.18 1023.17 1023.18 1023.24
1013.38 1014.31 1015.10 1015.61 1015.75 1015.47 1014.77 1013.73 1012.48 1011.19 1010.02 1009.12 1008.60 1008.48 1008.76 1009.36 1010.18 1011.08 1011.98 1012.78 1013.45 1014.00 1014.45 1014.86 1015.27 1015.74 1016.29 1016.90 1017.55 1018.22 1018.86 1019.45 1019.97 1020.42 1020.82 1021.18 1021.51 1021.83 1022.14 1022.42 1022.65 1022.83 1022.94 1022.98 1022.98 1022.95 1022.91 1022.90 1022.92
1012.74 1013.56 1014.25 1014.68 1014.78 1014.51 1013.88 1012.96 1011.87 1010.73 1009.71 1008.94 1008.48 1008.38 1008.62 1009.14 1009.86 1010.67 1011.48 1012.23 1012.89 1013.45 1013.95 1014.42 1014.91 1015.45 1016.05 1016.70 1017.38 1018.06 1018.70 1019.29 1019.81 1020.26 1020.66 1021.02 1021.34 1021.65 1021.94 1022.19 1022.40 1022.56 1022.65 1022.69 1022.67 1022.63 1022.57 1022.53 1022.51
Thickness
5736 5736 5735 5726 5703 5682 5685 5697 5706 5711 5717 5726 5729 5724 5720 5720 5718 5719 5734 5735 5736 5733 5729 5726 5723 5720 5717 5714 5712 5709 5707 5704 5702 5700 5698 5696 5694 5692 5691 5690 5689 5688 5687 5686 5686 5685 5685 5684 5684
5735 5735 5728 5713 5688 5674 5683 5699 5705 5714 5724 5727 5727 5726 5725 5727 5734 5734 5733 5733 5734 5732 5727 5725 5721 5718 5715 5712 5709 5706 5703 5700 5698 5696 5693 5691 5689 5687 5686 5684 5683 5682 5681 5680 5679 5678 5677 5677 5676
5735 5732 5717 5700 5685 5680 5693 5708 5710 5721 5727 5728 5725 5727 5728 5730 5735 5736 5737 5733 5732 5729 5725 5722 5719 5715 5712 5709 5706 5702 5699 5696 5694 5691 5689 5687 5685 5682 5680 5679 5677 5676 5674 5673 5672 5671 5670 5670 5669
5730 5721 5710 5695 5692 5696 5705 5715 5718 5722 5726 5728 5725 5723 5729 5735 5736 5738 5737 5733 5729 5726 5722 5719 5716 5713 5709 5706 5702 5699 5696 5693 5690 5687 5685 5682 5680 5677 5675 5673 5671 5670 5668 5667 5666 5665 5664 5663 5662
5724 5711 5698 5689 5696 5705 5711 5718 5721 5720 5723 5726 5724 5721 5726 5734 5736 5736 5734 5731 5727 5723 5719 5716 5713 5710 5707 5703 5699 5696 5692 5689 5686 5683 5681 5678 5675 5672 5670 5668 5666 5664 5663 5661 5660 5659 5657 5656 5656
5711 5702 5686 5684 5696 5708 5715 5722 5722 5721 5722 5724 5722 5720 5727 5733 5733 5731 5731 5728 5725 5721 5717 5713 5711 5707 5704 5700 5696 5693 5689 5686 5682 5679 5677 5674 5671 5668 5665 5663 5661 5659 5657 5656 5654 5653 5652 5651 5650
5704 5695 5689 5693 5696 5706 5718 5723 5721 5721 5721 5724 5725 5719 5726 5731 5730 5728 5726 5724 5721 5718 5714 5711 5708 5705 5701 5697 5693 5689 5686 5682 5679 5676 5673 5670 5667 5664 5661 5658 5656 5654 5652 5650 5649 5647 5646 5645 5644
5708 5696 5692 5691 5696 5706 5719 5724 5725 5723 5723 5728 5727 5720 5723 5730 5726 5724 5720 5718 5716 5713 5711 5708 5706 5702 5698 5694 5690 5686 5683 5679 5675 5672 5669 5665 5662 5659 5656 5653 5651 5649 5647 5645 5644 5642 5641 5640 5639
5708 5688 5684 5693 5699 5708 5719 5721 5724 5727 5725 5726 5726 5727 5728 5726 5723 5719 5715 5712 5710 5709 5708 5705 5703 5700 5696 5692 5688 5683 5679 5675 5672 5668 5664 5661 5657 5654 5651 5648 5646 5644 5642 5641 5639 5638 5636 5635 5633
5696 5682 5691 5704 5708 5711 5716 5718 5721 5722 5720 5721 5724 5726 5724 5721 5720 5717 5714 5711 5709 5707 5705 5703 5700 5697 5693 5689 5685 5680 5676 5672 5668 5664 5660 5656 5653 5649 5646 5644 5641 5639 5638 5636 5634 5632 5631 5629 5628
5696 5689 5697 5705 5711 5713 5713 5716 5719 5717 5713 5718 5721 5724 5720 5718 5717 5716 5715 5713 5711 5708 5704 5701 5698 5694 5690 5686 5682 5677 5673 5668 5664 5660 5656 5652 5648 5645 5642 5639 5636 5634 5633 5631 5629 5627 5625 5624 5622
5691 5694 5698 5704 5710 5710 5710 5712 5713 5713 5716 5724 5725 5724 5719 5716 5715 5715 5714 5712 5709 5705 5703 5699 5695 5691 5687 5683 5678 5673 5669 5665 5660 5656 5652 5648 5644 5640 5637 5635 5633 5630 5628 5626 5624 5622 5620 5619 5617
5686 5691 5697 5701 5703 5704 5705 5705 5708 5712 5718 5719 5720 5719 5716 5715 5715 5715 5714 5710 5706 5703 5701 5697 5693 5688 5683 5679 5674 5670 5665 5661 5657 5653 5649 5645 5641 5637 5634 5631 5629 5626 5624 5622 5620 5618 5616 5614 5613
5685 5687 5690 5693 5695 5697 5697 5698 5700 5709 5713 5713 5713 5712 5712 5711 5712 5710 5709 5707 5704 5701 5699 5695 5691 5686 5680 5675 5671 5666 5662 5657 5653 5649 5646 5642 5638 5634 5631 5628 5625 5623 5620 5618 5615 5613 5611 5609 5608
5680 5678 5680 5685 5688 5691 5690 5689 5696 5707 5706 5706 5706 5707 5707 5707 5707 5706 5707 5705 5703 5700 5696 5693 5688 5683 5677 5672 5667 5662 5658 5653 5649 5645 5642 5638 5635 5631 5628 5624 5621 5619 5616 5613 5610 5608 5606 5604 5602
5667 5661 5660 5673 5679 5683 5679 5678 5696 5701 5700 5700 5700 5700 5701 5703 5703 5703 5703 5702 5700 5697 5693 5690 5686 5680 5674 5668 5663 5658 5653 5649 5645 5641 5638 5634 5631 5628 5624 5620 5617 5615 5611 5608 5605 5603 5600 5598 5596
5646 5643 5649 5659 5671 5673 5670 5673 5689 5693 5693 5694 5695 5695 5695 5696 5698 5698 5698 5698 5696 5693 5690 5685 5681 5676 5670 5663 5658 5652 5648 5644 5640 5636 5633 5630 5627 5623 5620 5616 5613 5609 5606 5603 5600 5597 5594 5592 5590
5634 5635 5640 5646 5660 5661 5659 5665 5682 5685 5684 5687 5689 5689 5689 5690 5693 5693 5692 5691 5690 5687 5684 5680 5675 5670 5664 5657 5651 5645 5641 5637 5633 5630 5627 5624 5621 5618 5614 5610 5607 5604 5600 5596 5593 5590 5588 5585 5584
5636 5632 5633 5642 5652 5651 5650 5658 5676 5682 5678 5681 5684 5684 5685 5687 5687 5685 5684 5682 5681 5679 5677 5674 5669 5664 5658 5652 5645 5639 5634 5630 5626 5624 5621 5618 5615 5612 5608 5604 5600 5597 5593 5589 5586 5583 5580 5577 5575
5628 5625 5626 5636 5644 5641 5641 5650 5669 5676 5678 5682 5686 5686 5685 5682 5680 5678 5675 5673 5673 5671 5669 5666 5663 5658 5653 5648 5641 5635 5629 5623 5620 5616 5614 5611 5608 5605 5601 5597 5593 5589 5585 5581 5578 5574 5570 5567 5564
5617 5617 5622 5625 5633 5635 5632 5640 5660 5674 5677 5680 5682 5684 5683 5681 5677 5671 5668 5666 5664 5662 5661 5661 5656 5651 5646 5641 5634 5627 5621 5616 5612 5608 5605 5603 5601 5597 5594 5590 5586 5581 5577 5573 5569 5565 5561 5557 5553
5611 5621 5620 5619 5614 5611 5620 5613 5648 5663 5669 5675 5678 5677 5677 5676 5672 5667 5663 5659 5656 5655 5653 5651 5648 5644 5639 5634 5630 5624 5617 5610 5605 5601 5597 5594 5592 5589 5586 5582 5577 5573 5568 5564 5560 5556 5552 5547 5543
5615 5621 5615 5612 5607 5602 5608 5603 5631 5651 5659 5674 5676 5674 5672 5670 5667 5663 5658 5654 5650 5647 5645 5642 5639 5635 5631 5627 5623 5618 5610 5604 5597 5593 5589 5586 5583 5580 5576 5572 5568 5563 5559 5555 5551 5546 5542 5537 5533
5614 5608 5600 5590 5589 5588 5603 5596 5614 5642 5658 5667 5672 5670 5666 5662 5659 5655 5650 5645 5641 5638 5636 5633 5631 5626 5623 5619 5614 5610 5603 5596 5590 5585 5581 5576 5573 5569 5566 5562 5558 5554 5549 5545 5541 5536 5532 5527 5523
5606 5594 5580 5579 5576 5583 5598 5594 5613 5647 5656 5660 5664 5664 5659 5654 5650 5646 5641 5638 5634 5630 5628 5625 5623 5618 5614 5610 5606 5601 5596 5591 5585 5579 5574 5569 5564 5560 5556 5553 5548 5544 5540 5535 5531 5526 5522 5517 5513
5598 5595 5579 5572 5571 5577 5588 5589 5622 5647 5652 5654 5656 5657 5652 5647 5644 5642 5638 5635 5630 5626 5622 5618 5615 5610 5606 5602 5597 5593 5588 5583 5578 5573 5567 5562 5557 5552 5548 5543 5538 5534 5529 5525 5521 5516 5511 5507 5503
5591 5588 5594 5578 5570 5568 5578 5594 5617 5645 5650 5651 5650 5647 5644 5641 5638 5635 5631 5628 5624 5620 5616 5613 5608 5603 5599 5594 5589 5584 5580 5575 5570 5564 5559 5553 5548 5543 5539 5534 5529 5524 5519 5515 5510 5505 5501 5497 5492
5597 5590 5576 5569 5562 5562 5573 5585 5604 5630 5639 5642 5642 5640 5638 5635 5632 5628 5625 5621 5618 5614 5609 5604 5601 5597 5592 5587 5582 5577 5572 5567 5561 5555 5550 5544 5539 5534 5529 5524 5519 5514 5509 5505 5500 5495 5491 5486 5482
5585 5582 5579 5569 5563 5560 5563 5586 5615 5623 5630 5631 5634 5635 5633 5630 5627 5624 5620 5616 5611 5606 5601 5597 5593 5588 5583 5579 5574 5568 5563 5557 5552 5546 5541 5535 5530 5524 5519 5514 5509 5504 5499 5495 5490 5485 5481 5476 5472
5590 5586 5579 5569 5563 5558 5559 5583 5622 5622 5623 5625 5629 5630 5629 5626 5623 5619 5614 5609 5604 5600 5595 5591 5587 5582 5577 5572 5566 5560 5554 5548 5542 5536 5531 5526 5520 5514 5509 5504 5498 5494 5489 5484 5479 5475 5471 5467 5462